Terminal Aerodrome Forecast
Issued by NWS Melbourne, FL

Home | Current Version | Previous Version | Text Only | Print | Product List | Glossary On
Versions: 1 2 3 4 5 6 7 8 9 10 11 12 13 14 15 16 17 18 19 20 21 22 23 24
000
FTUS42 KMLB 240254 AAA
TAFMCO
TAF AMD
KMCO 240254Z 2403/2424 20003KT P6SM SCT035 BKN070 BKN250
     FM241000 19003KT P6SM SCT012 BKN080
      TEMPO 2410/2413 BKN012
     FM241300 24005KT P6SM BKN015
     FM241600 25006KT P6SM VCSH SCT025 BKN050
     FM242100 29006KT P6SM SCT040 BKN070=

USA.gov is the U.S. government's official web portal to all federal, state and local government web resources and services.